Regional Weather Roundup
Issued by NWS

Home | Current Version | Previous Version | Graphics & Text | Print | Product List | Glossary On
Versions: 1 2 3 4 5 6 7 8 9 10 11 12 13 14 15 16 17 18 19 20 21 22 23 24 25 26 27 28 29 30 31 32 33 34 35 36 37 38 39 40 41 42 43 44 45 46 47 48 49 50
000
ASUS45 KBOU 262107
RWRCO

WEATHER ROUNDUP FOR COLORADO
NATIONAL WEATHER SERVICE DENVER/BOULDER CO
200 PM MST SUN FEB 26 2017

NOTE: "FAIR" INDICATES FEW OR NO CLOUDS BELOW 12000 FEET WITH NO
SIGNIFICANT WEATHER AND/OR OBSTRUCTIONS TO VISIBILITY.

COZ001>005-013-030-031-262200-
...NORTHWEST COLORADO...

CITY           SKY/WX    TMP DP  RH WIND       PRES   REMARKS
CRAIG          FAIR      30   2  30 W17G26    29.84F WCI  18
HAYDEN         FAIR      25   3  39 S9        29.83F WCI  15
MEEKER         FAIR      30   3  31 S7        29.83F WCI  23
MOUNT WERNER   NOT AVBL
STEAMBOAT SPGS FAIR      24  -1  33 CALM      29.83F
WALDEN         NOT AVBL
$$

COZ006>008-011-262200-
...WEST CENTRAL VALLEYS...

CITY           SKY/WX    TMP DP  RH WIND       PRES   REMARKS
GRAND JUNCTION FAIR      41   8  25 SW9       29.88F
MONTROSE       CLOUDY    37   7  28 VRB3      29.89F
EAGLE          MOSUNNY   34   1  25 SW12      29.85F WCI  25
RIFLE          FAIR      37   3  24 NW14G21   29.86F
DELTA          FAIR      42   6  22 W6        29.89F
NUCLA          PTSUNNY   41   7  24 W9G16     29.91F
$$

COZ017>023-064>068-262200-
...SOUTHWEST COLORADO...

CITY           SKY/WX    TMP DP  RH WIND       PRES   REMARKS
DURANGO        PTSUNNY   37   9  31 SW14G23   29.86F
CORTEZ         FAIR      42  12  29 W15G21    29.88F
PAGOSA SPRINGS CLOUDY    35   3  26 SW12G20   29.84F WCI  26
TELLURIDE      PTSUNNY   25   6  44 CALM      29.85S
WOLF CREEK PAS CLOUDY     9   7  92 S16G24    29.81R FOG     WCI  -9
$$

COZ009-010-012-014-032>034-037-058>063-262200-
...CENTRAL COLORADO...

CITY           SKY/WX    TMP DP  RH WIND       PRES   REMARKS
ASPEN          FAIR      26  -1  31 E3        29.80F
BUENA VISTA    FAIR      31  -6  20 W29G37    29.76S WCI  17
COPPER MTN     NOT AVBL
BERTHOUD PASS  FAIR       0  -9  65 MISG      29.62F
COTTONWOOD PAS FAIR      23  -8  25 W28G41    29.72S WCI   6
GUNNISON       FAIR      21  10  62 SE5       29.86F WCI  15
KREMMLING      FAIR      34   1  25 W16       29.80F WCI  23
LEADVILLE      FAIR      18  -7  32 NW10G18   29.74F WCI   6
MONARCH PASS   FAIR       5   1  85 W45G54    29.80F WCI -23
SALIDA         FAIR      34  -4  19 W24G37    29.85S WCI  21
SUNLIGHT       NOT AVBL
WILKERSON PASS FAIR      19 -15  21 W9G20     29.70S WCI   9
$$

COZ069>075-262200-
...SAN LUIS VALLEY/SANGRE DE CRISTO MOUNTAINS...

CITY           SKY/WX    TMP DP  RH WIND       PRES   REMARKS
ALAMOSA        PTSUNNY   35   4  27 SE5       29.78F WCI  31
LA VETA PASS   FAIR      27   1  33 SW18G36   29.72F WCI  13
SAGUACHE       FAIR      34   0  23 NW21G30   29.80F WCI  22
$$

COZ035-036-038>040-262200-
...NORTHERN COLORADO FRONT RANGE...

CITY           SKY/WX    TMP DP  RH WIND       PRES   REMARKS
DENVER INTL AP FAIR      40  -5  14 W9        29.74F
DMNS CITY PARK   N/A     41  -7  13 N5G16     29.73S
AURORA         MOSUNNY   41  -6  13 NE7       29.74F
FRONT RANGE AP SUNNY     41  -8  12 S3        29.75F
ERIE MUNI ARPT FAIR      41  -6  13 NE6       29.75F
BOULDER MUN AP FAIR      39   5  24 NW3       29.74F
CENTENNIAL     FAIR      38  -8  14 NW3       29.73F
BROOMFIELD     SUNNY     39   0  19 NW7       29.74F
FORT COLLINS   FAIR      39   5  24 SE3       29.77F
LONGMONT       FAIR      43   3  19 SW6       29.77F
$$

COZ041-046-047-076>085-087-088-262200-
...PIKES PEAK/PALMER DIVIDE AND SOUTHERN FOOTHILLS...

CITY           SKY/WX    TMP DP  RH WIND       PRES   REMARKS
COLO. SPRINGS  FAIR      43 -10  10 VRB3      29.72F
A. F. ACADEMY  FAIR      39 -10  12 VRB6      29.69F
SCHRIEVER AFB  FAIR      39  -9  12 N8        29.73F
ELLICOTT       NOT AVBL
FALCON         FAIR      40 -10  11 SW8G17    29.72F
FORT CARSON    FAIR      43 -10  10 NE8       29.71F
LIMON          FAIR      39  -2  17 CALM      29.76F
MONUMENT HILL  FAIR      34   0  23 E6        29.72F WCI  29
TRINIDAD       PTSUNNY   48  -6  10 N17G26    29.73F
$$

COZ042>045-048>051-090-091-262200-
...NORTHEAST COLORADO...

CITY           SKY/WX    TMP DP  RH WIND       PRES   REMARKS
GREELEY ARPT   FAIR      40   4  22 VRB7      29.78F
AKRON          FAIR      40   8  26 S13       29.79F
BURLINGTON     FAIR      44   8  23 S10G22    29.82F
WRAY           NOT AVBL
STERLING       FAIR      36  14  41 S3        29.82F
HOLYOKE        FAIR      41  12  30 SW7       29.85F
FORT MORGAN    FAIR      40   2  20 CALM      29.80F
$$

COZ086-089-092>099-262200-
...SOUTHEAST COLORADO...

CITY           SKY/WX    TMP DP  RH WIND       PRES   REMARKS
PUEBLO         FAIR      50  -8   9 NW21G28   29.73F
LA JUNTA       FAIR      50   7  17 E6        29.77F
LAMAR          FAIR      50   6  16 E8        29.79F
SPRINGFIELD      N/A     50   3  14 S14       29.77F
$$



USA.gov is the U.S. government's official web portal to all federal, state and local government web resources and services.